This is the latest recevied weather packets stored in our database for station/object MB7UIK. If no packets are shown the sender has not sent any weather packets the latest 1 day(s).
| Time | Temp. | Humidity | Pressure | Rain* | Wind** | Luminosity | Snow |
|---|---|---|---|---|---|---|---|
| 1777994831 | 16.11° C | 40% | 1010.9 hPa | 0 mm | 1.79 m/s, 51° | - | - |
| 1777994805 | 16.11° C | 41% | 1010.9 hPa | 0 mm | 1.79 m/s, 355° | - | - |
| 1777994745 | 16.11° C | 41% | 1010.9 hPa | 0 mm | 1.34 m/s, 46° | - | - |
| 1777994685 | 16.11° C | 41% | 1010.9 hPa | 0 mm | 1.79 m/s, 78° | - | - |
| 1777994625 | 16.11° C | 41% | 1010.9 hPa | 0 mm | 2.24 m/s, 11° | - | - |
| 1777994564 | 16.67° C | 41% | 1010.9 hPa | 0 mm | 1.34 m/s, 68° | - | - |
| 1777994532 | 16.67° C | 41% | 1010.9 hPa | 0 mm | 1.34 m/s, 68° | - | - |
| 1777994504 | 16.67° C | 41% | 1010.9 hPa | 0 mm | 3.58 m/s, 54° | - | - |
| 1777994444 | 16.67° C | 41% | 1010.9 hPa | 0 mm | 4.47 m/s, 59° | - | - |
| 1777994384 | 16.67° C | 41% | 1010.8 hPa | 0 mm | 1.34 m/s, 11° | - | - |
| 1777994326 | 16.67° C | 41% | 1010.8 hPa | 0 mm | 1.79 m/s, 37° | - | - |
| 1777994266 | 16.67° C | 41% | 1010.9 hPa | 0 mm | 1.79 m/s, 32° | - | - |
| 1777994232 | 16.67° C | 41% | 1010.9 hPa | 0 mm | 1.79 m/s, 32° | - | - |
| 1777994206 | 16.67° C | 41% | 1010.9 hPa | 0 mm | 1.79 m/s, 50° | - | - |
| 1777994146 | 16.67° C | 41% | 1010.9 hPa | 0 mm | 1.34 m/s, 51° | - | - |
| 1777994085 | 16.67° C | 41% | 1010.9 hPa | 0 mm | 2.68 m/s, 54° | - | - |
| 1777994026 | 16.67° C | 41% | 1010.8 hPa | 0 mm | 3.58 m/s, 42° | - | - |
| 1777993965 | 16.67° C | 41% | 1010.9 hPa | 0 mm | 3.13 m/s, 17° | - | - |
| 1777993932 | 16.67° C | 41% | 1010.9 hPa | 0 mm | 3.13 m/s, 17° | - | - |
| 1777993904 | 16.67° C | 41% | 1010.9 hPa | 0 mm | 1.79 m/s, 42° | - | - |
| 1777993845 | 17.22° C | 40% | 1010.9 hPa | 0 mm | 1.34 m/s, 24° | - | - |
| 1777993785 | 17.22° C | 40% | 1010.9 hPa | 0 mm | 4.92 m/s, 45° | - | - |
| 1777993725 | 17.22° C | 40% | 1010.9 hPa | 0 mm | 1.79 m/s, 42° | - | - |
| 1777993665 | 17.22° C | 39% | 1010.8 hPa | 0 mm | 2.68 m/s, 351° | - | - |
| 1777993633 | 17.22° C | 39% | 1010.8 hPa | 0 mm | 2.68 m/s, 351° | - | - |
* Rain latest hour (hover to see other rain measurements)
** Current wind speed in m/s (hover to see current wind gust speed)